Imperial, NE

2:33 PM MST on January 23, 2017 (GMT -0700)
Imperial Municipal

Weather History for KIML - October, 2011

Change the Weather History Date:

Saturday, October 1, 2011

  Actual Average Record
Temperature  
Mean Temperature 63 °F 58 °F  
Max Temperature 82 °F 72 °F 95 °F (1899)
Min Temperature 43 °F 43 °F 26 °F (1985)
Degree Days  
Heating Degree Days 2 8  
Month to date heating degree days 2 8  
Cooling Degree Days 0 1  
Month to date cooling degree days 0 1  
Year to date cooling degree days 1079 958  
Growing Degree Days 12 (Base 50)    
Moisture  
Dew Point 33 °F    
Average Humidity 42    
Maximum Humidity 65    
Minimum Humidity 18    
Precipitation  
Precipitation 0.00 in 0.05 in 0.95 in (1945)
Sea Level Pressure  
Sea Level Pressure 30.11 in    
Wind  
Wind Speed 10 mph (SSE)    
Max Wind Speed 21 mph    
Max Gust Speed 26 mph    
Visibility 10 miles    
Events      
T = Trace of Precipitation, MM = Missing Value Source: NWS Daily Summary

Daily Weather History Graph

Daily Weather History Graph

Search for Another Location

Airport or City:

Trip Planner

Search our weather history database for the weather conditions in past years. The results will help you decide how hot, cold, wet, or windy it might be!

Date:

Astronomy

Oct. 01, 2011 Rise Set
Actual Time 6:42 AM MDT 6:28 PM MDT
Civil Twilight 6:15 AM MDT 6:56 PM MDT
Nautical Twilight 5:43 AM MDT 7:27 PM MDT
Astronomical Twilight 5:11 AM MDT 7:59 PM MDT
Moon 11:52 AM MDT (10/1) 9:26 PM MDT (10/1)
Length of Visible Light 12h 40m
Length of Day
11h 46m
Waxing Crescent, 25% of the Moon is Illuminated
Oct 1
Waxing Crescent
Oct 3
First Quarter
Oct 11
Full
Oct 19
Last Quarter
Oct 26
New

Hourly Weather History & Observations

Time (MDT) Temp. Windchill Dew Point Humidity Pressure Visibility Wind Dir Wind Speed Gust Speed Precip Events Conditions
12:53 AM 48.0 °F - 33.1 °F 56% 30.13 in 10.0 mi ESE 3.5 mph - N/A   Clear
1:53 AM 48.0 °F - 33.1 °F 56% 30.13 in 10.0 mi ESE 8.1 mph - N/A   Clear
2:53 AM 46.0 °F 43.1 °F 33.1 °F 61% 30.12 in 10.0 mi ESE 5.8 mph - N/A   Clear
3:53 AM 44.1 °F 41.5 °F 33.1 °F 65% 30.12 in 10.0 mi SSE 4.6 mph - N/A   Clear
4:53 AM 51.1 °F - 30.0 °F 44% 30.10 in 10.0 mi SSE 6.9 mph - N/A   Clear
5:53 AM 48.0 °F - 30.0 °F 50% 30.12 in 10.0 mi SE 5.8 mph - N/A   Clear
6:53 AM 50.0 °F - 28.9 °F 44% 30.14 in 10.0 mi South 11.5 mph - N/A   Clear
7:53 AM 52.0 °F - 30.0 °F 43% 30.17 in 10.0 mi SSE 4.6 mph - N/A   Clear
8:53 AM 57.0 °F - 30.0 °F 36% 30.17 in 10.0 mi South 11.5 mph - N/A   Clear
9:53 AM 63.0 °F - 30.9 °F 30% 30.16 in 10.0 mi South 13.8 mph - N/A   Clear
10:53 AM 68.0 °F - 33.1 °F 27% 30.14 in 10.0 mi SSE 10.4 mph - N/A   Clear
11:53 AM 73.0 °F - 32.0 °F 22% 30.12 in 10.0 mi SSE 16.1 mph 21.9 mph N/A   Clear
12:53 PM 77.0 °F - 33.1 °F 20% 30.11 in 10.0 mi SSE 11.5 mph 20.7 mph N/A   Clear
1:53 PM 79.0 °F - 34.0 °F 20% 30.09 in 10.0 mi South 15.0 mph 26.5 mph N/A   Clear
2:53 PM 81.0 °F - 34.0 °F 18% 30.07 in 10.0 mi SSE 16.1 mph 21.9 mph N/A   Clear
3:53 PM 81.0 °F - 34.0 °F 18% 30.06 in 10.0 mi South 18.4 mph 25.3 mph N/A   Clear
4:53 PM 80.1 °F - 34.0 °F 19% 30.04 in 10.0 mi SSE 13.8 mph 21.9 mph N/A   Clear
5:53 PM 77.0 °F - 35.1 °F 22% 30.06 in 10.0 mi SSE 9.2 mph - N/A   Clear
6:53 PM 64.9 °F - 37.9 °F 37% 30.09 in 10.0 mi SSE 8.1 mph - N/A   Clear
7:53 PM 60.1 °F - 37.9 °F 44% 30.11 in 10.0 mi SSE 8.1 mph - N/A   Clear
8:53 PM 57.0 °F - 37.0 °F 47% 30.11 in 10.0 mi SSE 6.9 mph - N/A   Clear
9:53 PM 55.4 °F - 37.4 °F 51% 30.14 in 10.0 mi SSE 8.1 mph - N/A   Clear
10:53 PM 57.9 °F - 35.1 °F 42% 30.09 in 10.0 mi SSE 9.2 mph - N/A   Clear
11:53 PM 62.1 °F - 34.0 °F 35% 30.07 in 10.0 mi South 10.4 mph - N/A   Clear